N0MQJ Weather Reports


time (UTC)temp
F
wind
direction
speed
knots
gust
knots
rain 1hr
in
rain 24hr
in
rain mn
in
humidity
%
barometer
mb
20260505083033 34 55 0.0 0.0 0.00 0.00 0.00 84 1000.6
20260505081615 35 55 0.0 0.0 0.00 0.00 0.00 84 1000.7
20260505080016 35 55 0.0 0.0 0.00 0.00 0.00 83 1000.8
20260505074541 35 55 0.0 0.0 0.00 0.00 0.00 83 1001.0
20260505073047 36 55 0.0 0.0 0.00 0.00 0.00 83 1000.7
20260505071543 36 55 0.0 0.0 0.00 0.00 0.00 84 1001.0
20260505070004 36 55 0.0 0.0 0.00 0.00 0.00 83 1001.2
20260505064529 37 55 0.0 1.7 0.00 0.00 0.00 82 1001.1
20260505063013 38 51 0.0 0.0 0.00 0.00 0.00 79 1001.1
20260505061515 39 49 0.0 4.3 0.00 0.00 0.00 75 1001.1
20260505060055 40 18 0.0 4.3 0.00 0.00 0.00 71 1001.1
20260505054551 43 5 0.0 5.2 0.00 0.00 0.00 62 1001.1
20260505053017 43 360 0.0 4.3 0.00 0.00 0.00 51 1001.0
20260505051542 42 5 0.9 4.3 0.00 0.00 0.00 54 1000.9
20260505050141 41 5 0.0 5.2 0.00 0.00 0.00 57 1000.7
20260505041523 40 181 0.0 0.0 0.00 0.00 0.00 75 1000.8
20260505040035 40 182 0.0 0.0 0.00 0.00 0.00 75 1000.6
20260505034540 40 182 0.0 0.0 0.00 0.00 0.00 73 1000.3
20260505033031 40 182 0.0 0.0 0.00 0.00 0.00 75 1000.3
20260505031521 40 182 0.0 0.0 0.00 0.00 0.00 74 1000.6
20260505030027 40 183 0.9 4.3 0.00 0.00 0.00 74 1000.1
20260505024504 40 63 0.0 0.9 0.00 0.00 0.00 75 1000.0
20260505023056 40 61 0.0 0.0 0.00 0.00 0.00 74 999.6
20260505021556 40 61 0.0 0.0 0.00 0.00 0.00 73 999.2
20260505020013 42 59 0.0 0.0 0.00 0.00 0.00 68 999.3
20260505014510 44 38 0.0 4.3 0.00 0.00 0.00 62 999.2
20260505013013 45 20 0.0 6.1 0.00 0.00 0.00 51 999.0
20260505011558 45 10 0.9 5.2 0.00 0.00 0.00 50 998.9
20260505004542 45 17 0.0 7.8 0.00 0.00 0.00 56 998.6
20260505003047 45 11 0.0 15.6 0.00 0.00 0.00 54 998.8
20260505001548 45 315 0.9 9.6 0.00 0.00 0.00 57 998.9
20260505000012 45 283 0.9 9.6 0.00 0.00 0.00 60 998.9
20260504233105 47 284 1.7 9.6 0.00 0.00 0.00 56 998.6
20260504231543 50 255 1.7 6.1 0.00 0.00 0.00 47 998.5
20260504230154 51 332 0.9 7.8 0.00 0.00 0.00 44 998.7
20260504224529 50 246 0.0 7.0 0.00 0.00 0.00 46 998.4
20260504223034 48 294 0.0 4.3 0.00 0.00 0.00 53 998.4
20260504221536 50 311 2.6 15.6 0.00 0.00 0.00 49 998.6
20260504220038 53 271 1.7 14.8 0.00 0.00 0.00 43 998.7
20260504214517 54 278 4.3 13.0 0.00 0.00 0.00 39 998.7
20260504213101 53 281 0.9 11.3 0.00 0.00 0.00 41 998.9
20260504211600 53 346 2.6 8.7 0.00 0.00 0.00 42 999.1
20260504210023 52 280 0.9 7.8 0.00 0.00 0.00 44 999.3
20260504204518 53 5 1.7 11.3 0.00 0.00 0.00 41 999.4
20260504203039 55 349 3.5 11.3 0.00 0.00 0.00 34 999.2
20260504201543 56 337 0.9 7.0 0.00 0.00 0.00 31 999.1
20260504200004 55 252 1.7 8.7 0.00 0.00 0.00 33 999.3
20260504194507 55 269 2.6 7.8 0.00 0.00 0.00 32 999.2
20260504193023 55 9 2.6 12.2 0.00 0.00 0.00 37 999.3
20260504191536 54 275 1.7 10.4 0.00 0.00 0.00 41 999.8
20260504190003 51 273 2.6 11.3 0.00 0.00 0.00 41 1000.0
20260504184511 51 296 4.3 16.5 0.00 0.00 0.00 42 1000.3
20260504183038 52 5 0.0 7.8 0.00 0.00 0.00 30 1000.2
20260504181551 52 41 1.7 7.8 0.00 0.00 0.00 33 1000.4
20260504180155 52 15 0.0 4.3 0.00 0.00 0.00 35 1000.7
20260504174515 51 360 0.0 8.7 0.00 0.00 0.00 38 1000.7
20260504173102 52 11 0.9 7.8 0.00 0.00 0.00 34 1000.8
20260504171513 53 289 2.6 10.4 0.00 0.00 0.00 35 1001.1